TimeCST,TemperatureF,Dew PointF,Humidity,Sea Level PressureIn,VisibilityMPH,Wind Direction,Wind SpeedMPH,Gust SpeedMPH,PrecipitationIn,Events,Conditions,WindDirDegrees,DateUTC
12:55 AM,31.3,30.4,96,30.06,9.0,Calm,Calm,-,N/A,,Mostly Cloudy,0,2012-11-09 06:55:00
1:55 AM,32.7,31.8,96,30.05,10.0,East,3.5,-,N/A,,Overcast,90,2012-11-09 07:55:00
3:55 AM,37.6,35.6,93,30.04,10.0,Calm,Calm,-,N/A,,Mostly Cloudy,0,2012-11-09 09:55:00
4:55 AM,34.5,33.6,97,30.06,7.0,Calm,Calm,-,N/A,,Mostly Cloudy,0,2012-11-09 10:55:00
5:55 AM,37.2,36.3,97,30.05,8.0,East,4.6,-,N/A,,Overcast,100,2012-11-09 11:55:00
6:55 AM,38.5,36.7,93,30.06,8.0,ESE,5.8,-,N/A,,Overcast,110,2012-11-09 12:55:00
7:55 AM,39.2,37.4,93,30.09,6.0,Calm,Calm,-,N/A,,Overcast,0,2012-11-09 13:55:00
8:55 AM,41.0,37.4,87,30.09,10.0,East,3.5,-,N/A,,Overcast,80,2012-11-09 14:55:00
9:55 AM,42.8,37.4,81,30.09,7.0,Calm,Calm,-,N/A,,Overcast,0,2012-11-09 15:55:00
10:55 AM,44.6,39.2,81,30.08,7.0,East,5.8,-,N/A,,Overcast,80,2012-11-09 16:55:00
11:55 AM,46.4,39.2,76,30.05,7.0,East,12.7,-,N/A,,Overcast,100,2012-11-09 17:55:00
12:55 PM,46.4,39.2,76,30.03,10.0,East,10.4,-,N/A,,Overcast,100,2012-11-09 18:55:00
1:55 PM,50.0,39.2,66,30.01,10.0,East,10.4,-,N/A,,Mostly Cloudy,100,2012-11-09 19:55:00
2:55 PM,48.2,39.2,71,30.01,10.0,East,10.4,-,N/A,,Mostly Cloudy,80,2012-11-09 20:55:00
3:55 PM,46.4,39.2,76,30.01,10.0,East,10.4,-,N/A,,Overcast,90,2012-11-09 21:55:00
4:55 PM,45.7,38.3,75,30.02,10.0,East,8.1,-,N/A,,Mostly Cloudy,90,2012-11-09 22:55:00
5:55 PM,45.5,38.7,77,30.02,10.0,East,10.4,-,N/A,,Overcast,80,2012-11-09 23:55:00
6:40 PM,44.6,39.2,81,30.03,10.0,East,11.5,-,N/A,,Mostly Cloudy,100,2012-11-10 00:40:00
6:55 PM,45.1,39.6,81,30.04,10.0,East,8.1,-,N/A,,Overcast,100,2012-11-10 00:55:00
7:49 PM,44.6,41.0,87,30.04,8.0,East,11.5,-,N/A,,Overcast,90,2012-11-10 01:49:00
7:55 PM,45.5,40.6,83,30.04,8.0,East,11.5,-,N/A,,Overcast,100,2012-11-10 01:55:00
8:55 PM,45.7,41.5,85,30.05,7.0,East,9.2,-,N/A,,Overcast,90,2012-11-10 02:55:00
9:55 PM,45.9,41.9,86,30.05,6.0,East,12.7,-,N/A,,Overcast,90,2012-11-10 03:55:00
10:55 PM,45.7,41.9,87,30.04,6.0,East,11.5,-,N/A,,Overcast,90,2012-11-10 04:55:00
11:25 PM,46.4,41.0,81,30.03,6.0,East,11.5,-,N/A,Rain,Light Rain,90,2012-11-10 05:25:00
11:37 PM,44.6,42.8,93,30.04,6.0,East,11.5,-,N/A,,Overcast,100,2012-11-10 05:37:00
11:55 PM,45.1,42.1,89,30.03,6.0,East,10.4,-,0.00,,Mostly Cloudy,100,2012-11-10 05:55:00